Regional Weather Roundup
Issued by NWS

Home | Current Version | Previous Version | Graphics & Text | Print | Product List | Glossary On
Versions: 1 2 3 4 5 6 7 8 9 10 11 12 13 14 15 16 17 18 19 20 21 22 23 24 25 26 27 28 29 30 31 32 33 34 35 36 37 38 39 40 41 42 43 44 45 46 47 48 49 50
000
ASUS43 KMKX 042200
RWRWI

WISCONSIN REGIONAL WEATHER ROUNDUP
NATIONAL WEATHER SERVICE MILWAUKEE/SULLIVAN WI
500 PM CDT FRI SEP 04 2015

NOTE: "FAIR" INDICATES FEW OR NO CLOUDS BELOW 12,000 FEET WITH NO
SIGNIFICANT WEATHER AND/OR OBSTRUCTIONS TO VISIBILITY.

WIZ001-002-006>008-014>016-023>028-042300-
NORTHWEST WISCONSIN

CITY           SKY/WX    TMP DP  RH WIND       PRES   REMARKS
SUPERIOR ARPT  MOSUNNY   62  59  89 E13G18    29.96S
ASHLAND        SUNNY     72  66  81 N7        29.97S
HAYWARD        SUNNY     83  69  62 S10       29.97F HX  86
SIREN          SUNNY     85  70  59 SE13      29.93S HX  90
CUMBERLAND     SUNNY     81  70  69 SE12      29.96F HX  84
RICE LAKE      MOSUNNY   82  71  68 E9        29.97F HX  86
CHETEK         SUNNY     83  72  69 SE13G20   29.96F HX  89
LADYSMITH      SUNNY     83  65  55 SE9       30.01S HX  85
EAU CLAIRE     MOSUNNY   85  71  63 SE10      29.94F HX  90
MENOMONIE      SUNNY     87  71  59 SE10      29.95F HX  93
NEW RICHMOND   MOSUNNY   85  70  60 SE12G20   29.93S HX  90
OSCEOLA        SUNNY     85  72  64 SE10G18   29.94S HX  92
$$

WIZ003>005-009-010-017-018-042300-
NORTH CENTRAL WISCONSIN

CITY           SKY/WX    TMP DP  RH WIND       PRES   REMARKS
MANITOWISH WTR MOSUNNY   82  65  57 SE7       30.03F HX  83
ARBOR VITAE    MOSUNNY   82  65  56 S9        30.03F HX  84
WOODRUFF       MOSUNNY   82  65  56 S9        30.03F HX  84
RHINELANDER    SUNNY     82  63  52 SE8       30.05S HX  83
EAGLE RIVER    SUNNY     81  60  48 S7        30.04S HX  81
LAND O LAKES   SUNNY     82  62  49 SE7       30.05F HX  83
PHILLIPS       SUNNY     82  66  59 SE7       30.01S HX  84
TOMAHAWK       MOSUNNY   82  65  56 E3        30.03F HX  83
MEDFORD        SUNNY     78  67  69 SE7       30.02S HX  81
MERRILL        SUNNY     81  67  63 S5        30.03S HX  84
$$

WIZ029-030-035-036-043>047-042300-
CENTRAL WISCONSIN

CITY           SKY/WX    TMP DP  RH WIND       PRES   REMARKS
WAUSAU         MOSUNNY   81  66  60 E8        30.01F HX  83
MOSINEE        NOT AVBL
MARSHFIELD     SUNNY     81  63  54 SE8       30.02S HX  82
STEVENS POINT  MOSUNNY   77  66  68 E8        30.03F
WAUPACA        MOSUNNY   82  67  60 E6        30.03S HX  84
WAUTOMA        NOT AVBL
WISC RAPIDS    MOSUNNY   81  64  56 SE8       30.02F HX  82
CAMP DOUGLAS   NOT AVBL
$$

WIZ011>013-019>022-031-037>040-048>050-042300-
NORTHEAST WISCONSIN

CITY           SKY/WX    TMP DP  RH WIND       PRES   REMARKS
ANTIGO         MOSUNNY   78  65  65 SE7       30.05S
SHAWANO        NOT AVBL
OCONTO         SUNNY     74  69  82 E6        30.04S
STURGEON BAY   PTSUNNY   72  64  78 E8        30.07S
GREEN BAY      SUNNY     76  67  73 NE9       30.03F
MANITOWOC      NOT AVBL
APPLETON       PTSUNNY   75  64  69 VRB3      30.02S
CLINTONVILLE   PTSUNNY   79  64  61 SE5       30.02S HX  81
OSHKOSH        SUNNY     75  65  70 VRB3      30.03S
$$

WIZ032>034-041-042-053>061-042300-
SOUTHWEST WISCONSIN

CITY           SKY/WX    TMP DP  RH WIND       PRES   REMARKS
LA CROSSE      MOSUNNY   88  69  53 SE9       29.95R HX  92
SPARTA         MOSUNNY   86  69  57 E8        29.98S HX  90
VIROQUA        MOSUNNY   86  69  57 SE8       30.00S HX  90
BOSCOBEL       SUNNY     90  68  48 VRB5      29.96S HX  94
PRAIRIE DU CHI MOSUNNY   89  66  46 S5        29.95S HX  91
PLATTEVILLE    PTSUNNY   85  71  62 S7        29.98F HX  91
$$

WIZ056-057-062-063-064-067-068-042300-
SOUTH CENTRAL WISCONSIN

CITY           SKY/WX    TMP DP  RH WIND       PRES   REMARKS
REEDSBURG      MOSUNNY   84  73  69 E5        29.99S HX  90
BARABOO/DELLS  PTSUNNY   83  68  61 E8        30.00F HX  86
LONE ROCK      NOT AVBL
MINERAL POINT  MOSUNNY   88  72  58 SE6       30.00F HX  94
MADISON        MOSUNNY   83  71  67 NE7       29.99F HX  87
MIDDLETON      MOSUNNY   86  70  58 SE7       30.00F HX  91
WATERTOWN      PTSUNNY   81  70  70 CALM      30.01S HX  84
MONROE         CLOUDY    86  70  58 CALM      30.00S HX  90
JANESVILLE     PTSUNNY   88  70  55 CALM      29.98F HX  92
$$

WIZ051-052-058>065-066-070>072-042300-
SOUTHEAST WISCONSIN

CITY           SKY/WX    TMP DP  RH WIND       PRES   REMARKS
MILWAUKEE      PTSUNNY   71  65  81 E9        30.04R
WAUKESHA       MOSUNNY   75  66  73 E6        30.03S
MILWAUKEE/TIMM NOT AVBL
RACINE         CLOUDY    73  65  75 E8        30.05S
BURLINGTON     SUNNY     80  67  66 NE6       30.02R HX  82
KENOSHA        MOSUNNY   74  66  76 E10       30.04R
FOND DU LAC    PTSUNNY   75  67  76 NE6       30.03F
SHEBOYGAN      CLOUDY    71  66  84 E8        30.03S
WEST BEND      MOSUNNY   73  64  73 CALM      30.03S
JUNEAU         MOSUNNY   79  68  68 N3        30.03S HX  81
$$

LSZ147-162-042300-
LAKE SUPERIOR

STATION/POSITION TIME  TEMP    WIND        PRES    WAVE
                       AIR SEA DIR/SP/G            HT/PER
                 (UTC) (F)     (DEG/KT/KT) (MB)    (FT/S)
W MID LAKE BUOY  2050   61 58   40/ 10/ 10 1016.2F   1
DEVILS ISLAND    2100   61      70/ 11/ 12 1015.6F
PORT WING        2100   56      30/ 17/ 21 1014.6F
SAXON HARBOR     2140   70      CALM  /  5 1014.2F
$$

LMZ867-665-643>646-042300-
LAKE MICHIGAN

STATION/POSITION TIME  TEMP    WIND        PRES    WAVE
                       AIR SEA DIR/SP/G            HT/PER
                 (UTC) (F)     (DEG/KT/KT) (MB)    (FT/S)
CHAMBERS ISLAND  2100   70      30/  8/ 10 1017.3F
S GREEN BAY BUOY 2130   68 68   50/  8/ 10 1018.6S
N MID LAKE BUOY  2050   68 67   20/ 10/ 10 1017.2F   1/ 3
NORTHPORT PIER   2100   69      70/  8/ 10 1017.6S
SISTER BAY       2111   79     110/ 10/ 12   N/A
ALGOMA LAKESHORE 2144           50/  9/ 12   N/A
KEWAUNEE LAKESHO 2100   66      90/  2/  3 1016.7F
SHEBOYGAN LAKESH 2100   64      60/  7/  7 1017.1F
PORT WASHINGTON  2100   65      50/  2/  3 1017.3F
ATWATER BUOY     2100   62 61  300/  2/  4 1018.2F
MILWAUKEE LAKESH 2110   63      30/  5/  6   N/A
S MID LAKE BUOY  2050   69 71  320/  6/  8 1016.4S   1
KENOSHA   LAKESH 2100   65      60/  7/  7 1016.3F
$$

TC  - TEMPERATURE IN CELSIUS
VSB - VISIBILITY IN STATUTE MILES
WCI - WIND CHILL INDEX
HX  - HEAT INDEX



USA.gov is the U.S. government's official web portal to all federal, state and local government web resources and services.